sat.trackr.live / text

‹ back to catalog

UNKNOWN

NORAD 87690

UNKNOWN UNKNOWN UNKNOWN

§ Identity

Operator
Country
Launch date
Launch site
Launch vehicle
Mass (kg)
RCS (m²)

External: N2YO · Heavens-Above

§ Orbital elements

Epoch: 2026-05-23T16:35:39.164928Z

Period
102.68 min
Inclination
65.7902°
Eccentricity
0.0584534
Mean motion
14.02401847 rev/d
Perigee alt
460.9 km
Apogee alt
1,310.1 km
Semi-major
7,263.6 km
B*
1.9961e-4
RAAN
292.1732°
Arg perigee
324.9008°
Mean anomaly
31.4819°
Rev number
63,007

§ Raw data

UNKNOWN1 87690U          26143.69142552  .00001320  00000+0  19961-3 0  99942 87690  65.7902 292.1732 0584534 324.9008  31.4819 14.02401847630075

JSON: /api/v1/satellites/87690 · /tle

For live sub-satellite position, see the globe view (requires WebGL).

§ Visibility from observer

Set your observer location to see the next 7 days of passes ≥ 10°. The values pass through the URL so the page stays shareable.

No JS? Fill the form by hand. The geolocation button needs JavaScript.